Regional Weather Roundup
Issued by NWS

Home | Current Version | Previous Version | Text Only | Print | Product List | Glossary Off
Versions: 1 2 3 4 5 6 7 8 9 10 11 12 13 14 15 16 17 18 19 20 21 22 23 24 25 26 27 28 29 30 31 32 33 34 35 36 37 38 39 40 41 42 43 44 45 46 47 48 49 50

000
ASUS45 KCYS 222110
RWRWY

WYOMING REGIONAL WEATHER ROUNDUP
NATIONAL WEATHER SERVICE CHEYENNE WY
300 PM MDT SAT APR 22 2017

NOTE:  "FAIR" INDICATES FEW OR NO CLOUDS BELOW 12,000 FEET
WITH NO SIGNIFICANT WEATHER AND/OR OBSTRUCTIONS TO VISIBILITY.

WYZ001-222200-
YELLOWSTONE NATIONAL PARK

CITY           SKY/WX    TMP DP  RH WIND       PRES   REMARKS
LK YELLOWSTONE   N/A     42  19  39 MISG      30.18F
W YELLOWSTONE  NOT AVBL

$$
WYZ002>013-054>058-071-098>099-222200-
NORTHERN WYOMING

CITY           SKY/WX    TMP DP  RH WIND       PRES   REMARKS
JACKSON        SUNNY     52  25  35 S10       30.17F
CODY           PTSUNNY   52  36  54 SE13G22   30.11F
GREYBULL       FAIR      55  37  50 S20G26    30.13F
WORLAND        PTSUNNY   54  40  59 SE10      30.15F
SHERIDAN       FAIR      56  38  50 SE18G24   30.11F
BUFFALO        PTSUNNY   54  38  54 S16G23    30.14F
GILLETTE       CLOUDY    51  39  63 SW8       30.16F
HULETT         MOCLDY    55  37  50 S9G16     30.16F
NEWCASTLE      FAIR      55  30  38 S10G25    30.21F

$$
WYZ014>020-022>026-101>103-222200-
CENTRAL WYOMING

CITY           SKY/WX    TMP DP  RH WIND       PRES   REMARKS
BIG PINEY      FAIR      51  24  34 S8        30.21F
PINEDALE       FAIR      48  25  40 SE8       30.23F
DUBOIS         MOCLDY    46  27  46 S5        30.16F
LANDER         FAIR      56  31  38 VRB3      30.11F
RIVERTON       FAIR      55  33  43 SE12      30.14F
CASPER         PTSUNNY   52  31  44 S13G20    30.19F
DOUGLAS        FAIR      56  34  43 VRB5      30.21F

$$
WYZ021-027>030-104>119-222200-
SOUTHERN WYOMING

CITY           SKY/WX    TMP DP  RH WIND       PRES   REMARKS
EVANSTON       FAIR      52  25  35 VRB7G20   30.18F
KEMMERER         N/A     50  19  29 SE6G20    30.21F
FORT BRIDGER   FAIR      54  20  26 E6        30.22S
ROCK SPRINGS   FAIR      55  18  23 S16       30.19F
DIXON            N/A     53  27  36 CALM      30.24F
RAWLINS        FAIR      53  21  28 W13       30.20F
SARATOGA       MOCLDY    50  23  34 W13       30.22F
LARAMIE        FAIR      47  27  45 SE13      30.23F
CHEYENNE       FAIR      49  31  49 S7        30.25F
TORRINGTON     FAIR      62  31  31 S13       30.20F
PINE BLUFFS    FAIR      54  32  43 S8        30.26F

$$



USA.gov is the U.S. government's official web portal to all federal, state and local government web resources and services.